Regional Weather Roundup
Issued by NWS

Home | Current Version | Previous Version | Text Only | Print | Product List | Glossary Off
Versions: 1 2 3 4 5 6 7 8 9 10 11 12 13 14 15 16 17 18 19 20 21 22 23 24 25 26 27

000
ASUS45 KCYS 241410
RWRWY

WYOMING REGIONAL WEATHER ROUNDUP
NATIONAL WEATHER SERVICE CHEYENNE WY
800 AM MDT FRI OCT 24 2014

NOTE:  "FAIR" INDICATES FEW OR NO CLOUDS BELOW 12,000 FEET
WITH NO SIGNIFICANT WEATHER AND/OR OBSTRUCTIONS TO VISIBILITY.

WYZ001-241500-
YELLOWSTONE NATIONAL PARK

CITY           SKY/WX    TMP DP  RH WIND       PRES   REMARKS
LK YELLOWSTONE   N/A     42  33  70 VRB3      30.22
W YELLOWSTONE  NOT AVBL

$$
WYZ002>013-054>058-071-098>099-241500-
NORTHERN WYOMING

CITY           SKY/WX    TMP DP  RH WIND       PRES   REMARKS
JACKSON        MOCLDY    46  30  53 S8        30.18S
CODY           CLOUDY    61  32  33 S6        30.05
GREYBULL       CLOUDY    37  27  67 SW3       30.02R
WORLAND        MOCLDY    36  26  67 S5        30.02R WCI  32
SHERIDAN       MOCLDY    40  30  67 SE3       30.03R
BUFFALO        MOCLDY    51  25  36 W9        30.04R
GILLETTE       CLOUDY    51  25  36 SW5       30.02R
HULETT         FAIR      48  30  49 SW7       30.02
NEWCASTLE      FAIR      43  30  61 N5        30.05

$$
WYZ014>020-022>026-101>103-241500-
CENTRAL WYOMING

CITY           SKY/WX    TMP DP  RH WIND       PRES   REMARKS
BIG PINEY      PTCLDY    27  22  81 E3        30.24R
PINEDALE       MOSUNNY   28  27  93 CALM      30.25
DUBOIS         PTSUNNY   46  23  39 NW15G25   30.15R
LANDER         MOCLDY    46  25  43 W5        30.09R
RIVERTON       PTCLDY    40  23  50 CALM      30.10R
CASPER         CLOUDY    51  31  46 SW13      30.10R
DOUGLAS        CLOUDY    44  28  53 CALM      30.09R

$$
WYZ021-027>030-104>119-241500-
SOUTHERN WYOMING

CITY           SKY/WX    TMP DP  RH WIND       PRES   REMARKS
EVANSTON       CLEAR     46  22  38 SW12      30.25R
KEMMERER       MOSUNNY   41  25  52 SW5       30.25S
FORT BRIDGER   FAIR      47  23  38 W8        30.27R
ROCK SPRINGS   PTCLDY    43  25  49 S7        30.24R
DIXON          FAIR      37  32  79 NE5       30.31R WCI  34
RAWLINS        PTCLDY    47  27  45 W6        30.24R
SARATOGA       FAIR      43  30  61 SE6       30.28R
LARAMIE        MOCLDY    49  27  42 SW14      30.25R
CHEYENNE       CLOUDY    58  26  29 W7        30.20R
TORRINGTON     CLOUDY    56  33  42 W6        30.06R
PINE BLUFFS    FAIR      52  32  46 W13       30.14R

$$



USA.gov is the U.S. government's official web portal to all federal, state and local government web resources and services.